Tracking 18957 objects as of 23-Jan-2018
HD Live streaming from Space Station
objects crossing your sky now

CZ-2C DEB

Track CZ-2C DEB now!
10-day predictions


NORAD ID: 40263
Int'l Code: 2014-059C
Perigee: 651.4 km
Apogee: 809.0 km
Inclination: 98.3 °
Period: 99.3 minutes
Semi major axis: 7101 km
RCS: Unknown
Launch date: September 28, 2014
Source: People's Republic of China (PRC)
Launch site: Jiuquan Satellite Launch Center, China (JSC)

Note: This is SATELLITE DEBRIS
aabbcc
Your satellite tracking list
Your tracking list is empty




NASA's NSSDC Master Catalog

Two Line Element Set (TLE):
1 40263U 14059C   18022.82240407 +.00000638 +00000-0 +16101-3 0  9993
2 40263 098.2920 114.8245 0110991 113.7209 247.5676 14.50797396175591
Source of the keplerian elements: AFSPC